Wind_Speed
11 10 10 10 10 12 13 15 16 18 19 17 15 15 16 19 20 22 22 21 21 20 17 15 16 15 14 12 12 15 18 20 21 21 23 23 23 21 21 21 21 21 21 22 22 23 23 23 23 23 24 25 26 26 25 24 23 22 21 21 21 21
10 9 8 9 10 12 14 16 17 18 17 14 13 15 17 20 22 23 24 23 22 20 16 16 16 16 16 15 15 16 18 19 20 19 19 19 19 18 19 19 20 20 20 21 22 23 24 24 24 24 25 26 27 26 25 24 23 22 21 20 19 19
9 8 8 8 10 12 14 16 17 16 14 13 14 16 18 21 22 24 25 24 22 18 15 15 16 17 17 16 16 16 17 17 18 18 18 19 19 19 20 20 20 20 20 19 20 20 21 21 21 20 21 22 23 24 24 23 23 22 21 21 19 18
8 7 8 8 10 12 13 15 15 13 12 13 14 17 19 21 23 25 25 23 20 17 16 16 17 17 16 16 16 16 16 17 18 18 19 20 21 21 21 21 21 20 20 20 20 19 19 19 18 17 17 18 19 20 21 21 23 23 23 22 21 19
6 7 8 8 9 10 11 12 12 11 12 13 15 18 20 22 24 26 25 21 18 17 16 17 18 17 16 16 16 16 17 18 19 20 21 21 22 22 22 22 22 21 21 20 20 20 19 18 18 17 16 17 18 19 19 19 21 22 23 24 23 21
6 6 7 7 8 9 10 10 10 11 12 14 16 19 21 23 25 26 23 19 18 17 18 19 18 17 17 17 17 17 18 19 20 21 23 23 23 23 23 22 21 21 21 20 20 20 19 18 18 18 17 17 18 19 18 19 20 21 22 23 24 23
7 4 5 7 8 9 9 9 10 11 13 15 18 20 23 25 25 23 20 18 19 20 20 20 18 17 17 17 17 18 19 20 21 23 24 24 23 22 21 20 20 20 21 21 21 21 19 18 18 18 18 18 18 19 18 19 19 20 20 21 23 24
9 5 5 6 8 8 8 8 10 11 13 15 18 22 24 24 23 21 20 20 21 21 20 19 18 17 17 17 17 18 19 21 23 24 24 23 23 21 20 19 19 20 21 21 21 21 20 19 18 17 18 18 18 18 17 17 17 17 18 19 20 21
10 9 7 6 6 7 8 9 10 12 14 16 19 22 23 22 21 21 21 21 20 20 19 18 18 17 17 17 18 19 20 22 23 24 23 22 22 21 20 20 20 21 21 21 20 21 21 19 18 16 16 17 17 15 15 14 14 14 15 16 17 18
10 11 10 8 6 7 9 10 11 12 14 17 20 22 22 22 22 22 21 20 19 18 17 18 18 18 18 18 18 20 21 23 23 23 23 22 23 23 21 21 22 23 23 21 20 21 22 20 18 17 16 15 14 12 12 12 12 11 12 13 14 15
9 10 10 9 8 8 9 10 11 12 15 18 20 22 22 22 23 22 20 19 19 17 16 17 18 18 18 18 19 21 22 23 22 23 23 24 25 25 24 22 23 25 25 23 20 21 23 20 18 17 16 14 11 9 9 10 11 11 12 12 13 14
9 9 10 9 8 8 9 10 11 13 16 18 20 22 22 23 22 20 19 19 18 16 16 17 17 18 18 19 20 21 22 22 23 23 25 27 27 28 26 22 23 24 25 25 23 24 25 19 16 16 15 12 9 8 9 10 11 12 13 13 14 14
9 8 8 8 8 8 9 10 12 14 17 18 20 22 22 22 20 19 18 18 18 17 17 17 17 18 18 19 20 22 22 23 24 24 26 28 29 30 27 22 23 23 24 25 26 29 27 18 13 14 13 10 10 11 11 11 12 13 14 15 16 15
9 6 7 7 7 9 10 11 13 15 16 19 21 22 21 21 18 17 17 17 18 18 18 17 16 17 18 19 20 22 23 24 25 26 27 29 30 31 27 23 23 23 23 24 27 29 25 16 13 12 11 11 12 13 14 13 14 15 16 17 17 17
9 6 6 7 7 9 11 12 13 15 17 20 21 21 20 19 17 16 16 16 18 18 17 17 17 18 19 20 21 22 24 25 26 27 28 29 30 30 27 25 24 23 23 24 26 26 20 15 13 11 13 14 16 17 16 15 15 16 17 18 19 18
10 8 7 7 8 9 11 12 14 16 18 20 20 20 20 18 15 15 15 16 18 17 17 17 18 19 19 20 21 23 25 26 26 27 28 30 30 28 27 26 24 23 23 24 25 22 16 14 11 13 15 17 20 20 20 19 18 17 17 16 17 16
11 10 8 7 8 9 11 12 14 16 18 20 19 19 19 16 13 14 14 15 17 17 18 18 18 19 19 20 22 24 26 26 26 28 29 30 29 28 28 26 24 23 22 23 23 19 15 13 13 15 17 20 22 23 23 23 20 18 17 15 15 14
12 11 9 8 8 9 11 13 15 17 18 19 19 19 17 14 13 13 13 15 17 18 19 19 18 18 18 20 23 25 26 27 27 29 31 31 29 27 27 25 24 23 22 20 19 18 15 14 14 15 17 21 24 27 28 25 20 17 16 15 14 12
12 11 10 9 8 10 12 13 15 16 17 18 18 17 15 13 12 12 13 15 17 19 19 18 18 18 19 21 24 26 27 28 29 30 32 32 29 27 26 25 24 22 21 19 17 16 15 13 13 14 16 19 25 31 30 26 21 18 16 15 14 12
13 12 11 9 9 10 11 13 14 16 18 18 18 15 13 12 11 11 13 16 18 19 19 18 17 18 20 23 25 27 28 29 30 30 32 32 28 25 24 25 25 22 21 19 18 17 15 11 10 11 14 17 23 29 30 27 25 24 22 18 16 13
14 13 12 11 11 12 13 14 16 18 19 18 16 12 11 11 10 11 13 16 18 19 19 18 18 19 21 24 26 28 30 31 31 31 31 30 27 23 22 24 25 23 21 19 20 20 18 16 13 10 11 14 18 23 29 30 30 32 29 24 21 17
14 13 14 14 15 15 16 17 17 18 19 17 14 11 10 10 10 10 12 16 18 19 19 19 18 20 22 25 27 29 31 32 32 32 31 29 27 22 20 23 24 23 22 18 19 22 21 21 21 16 13 14 17 19 26 32 33 35 35 31 28 25
14 14 15 16 16 17 17 17 17 18 17 14 12 10 9 8 7 9 12 15 17 19 20 19 19 20 22 25 27 30 32 32 32 32 30 28 28 24 19 21 22 22 22 19 19 23 24 23 23 22 18 16 18 17 21 30 34 35 37 36 33 32
14 14 15 16 16 16 16 16 16 16 15 12 9 7 5 4 5 9 12 15 17 19 20 19 19 21 23 25 28 30 32 33 33 32 30 28 29 26 20 19 20 20 21 20 20 21 21 21 21 23 19 14 15 15 16 23 29 34 37 37 36 36
13 14 15 15 15 15 15 14 15 15 14 11 8 5 4 5 7 10 14 16 17 19 19 19 20 21 23 25 28 30 32 33 33 31 30 29 29 28 23 19 17 17 19 19 19 19 18 19 19 19 18 14 12 13 15 18 22 28 35 37 37 36
13 14 14 15 15 15 14 15 16 16 15 13 10 8 7 8 9 12 14 16 17 18 18 18 20 21 23 25 28 30 32 33 33 32 31 29 28 29 27 22 18 17 17 16 17 19 18 17 16 18 18 17 13 12 16 20 19 20 28 34 36 37
12 13 14 15 15 15 16 16 17 17 17 14 11 9 8 7 8 11 13 14 16 17 17 18 20 21 23 25 27 29 31 32 33 34 32 31 30 29 28 25 23 21 19 17 16 19 20 17 16 16 17 17 16 16 18 22 21 17 20 28 34 37
11 13 13 14 15 15 16 16 17 17 16 14 10 8 6 4 6 9 11 13 15 16 16 18 20 21 23 25 26 28 30 32 35 36 36 35 33 31 29 26 25 24 22 19 19 20 21 20 18 16 15 17 17 18 18 20 22 19 18 22 28 33
11 12 13 14 14 15 15 16 17 17 15 13 9 6 3 3 6 8 10 12 14 15 16 18 19 21 22 24 25 27 28 31 35 37 38 38 37 35 34 32 29 26 23 20 20 20 21 23 22 19 18 19 17 16 17 19 21 23 23 22 24 28
10 11 12 13 14 14 15 15 16 16 15 12 8 5 3 4 6 8 9 11 13 15 15 18 19 20 22 22 23 25 27 30 33 35 36 37 38 38 38 38 37 34 28 23 20 21 22 22 22 22 22 21 19 17 18 19 20 23 25 24 23 26
9 10 12 13 13 14 15 15 15 15 14 12 9 6 4 5 7 8 9 11 13 14 15 18 19 19 21 20 21 23 26 27 29 31 32 33 34 35 36 37 38 39 37 30 23 21 22 22 21 22 23 22 23 23 23 23 22 23 24 24 24 25
8 9 11 12 12 13 14 14 15 15 14 12 9 7 7 8 9 10 11 11 12 14 15 17 18 18 19 18 18 21 23 24 26 27 28 29 30 30 31 32 34 36 39 37 30 24 24 24 23 23 23 23 25 27 27 26 24 24 24 23 23 24
8 8 10 11 12 13 14 14 14 14 13 11 9 8 9 10 11 12 12 11 12 14 14 16 17 17 18 17 16 18 20 21 23 25 26 26 27 27 28 28 30 31 34 37 35 30 27 27 27 26 24 24 26 27 27 26 25 24 23 23 23 24
7 7 9 10 11 12 13 14 13 13 12 10 9 9 10 10 11 12 13 12 12 13 14 15 16 16 16 16 15 16 17 19 20 22 24 25 25 26 26 25 26 28 29 31 33 32 30 29 30 30 28 27 27 27 26 24 23 23 23 23 24 24
6 7 8 10 11 12 13 13 12 12 12 10 9 9 10 10 11 12 12 11 11 12 13 14 15 15 14 14 13 13 15 17 18 20 22 23 24 25 25 24 24 24 25 26 28 29 28 28 27 27 26 25 25 24 24 22 22 22 22 22 23 22
5 6 8 9 10 11 12 12 11 11 11 10 9 9 10 10 11 12 11 10 10 12 13 14 14 13 13 12 12 12 14 16 17 18 20 22 24 24 24 25 25 24 23 23 24 25 25 24 23 22 22 22 22 21 21 20 19 20 20 21 20 20
5 5 7 9 9 11 11 11 11 11 11 10 9 9 10 11 11 12 10 9 10 11 12 13 14 13 12 11 11 11 12 15 16 17 19 21 23 24 24 25 26 25 24 23 22 22 22 22 21 20 20 20 19 19 18 18 18 18 20 20 19 18
Wind_Direction
316 313 312 312 311 309 311 314 317 319 321 324 328 334 336 338 341 342 340 340 344 348 351 356 352 347 343 330 310 304 306 308 310 309 308 311 314 315 314 314 313 309 304 297 292 288 285 282 280 278 276 277 276 276 276 276 277 277 276 273 271 265
308 304 306 308 308 309 313 316 318 322 327 332 338 341 339 341 343 343 341 342 347 351 355 355 349 347 344 338 329 319 317 316 317 319 322 328 332 331 329 326 324 320 314 307 299 294 290 288 285 282 279 279 279 278 277 276 276 276 275 274 273 270
303 293 295 303 306 308 310 313 318 325 331 337 341 342 341 341 342 343 343 345 350 355 357 354 350 348 345 340 334 328 326 327 331 336 341 344 344 343 341 338 336 331 326 319 313 307 302 300 296 291 287 284 282 280 278 277 275 274 273 272 271 271
304 295 290 296 302 308 312 316 324 330 336 340 340 339 338 338 340 343 346 349 355 358 356 353 351 348 344 341 339 339 341 344 347 348 349 348 346 345 343 340 338 333 327 323 320 317 313 311 309 307 301 295 290 285 283 280 276 274 272 270 270 270
314 313 307 307 309 313 318 324 332 340 344 342 339 337 336 337 341 345 349 353 356 356 354 353 352 350 349 350 351 353 356 357 355 352 350 348 346 345 342 340 337 331 325 321 320 319 317 315 312 310 306 302 298 294 292 288 282 278 274 271 269 269
336 332 328 327 326 323 325 331 339 348 347 343 341 339 337 340 345 347 350 353 354 355 356 357 357 357 358 359 1 3 2 359 356 352 349 347 347 345 343 340 337 332 329 328 326 323 320 316 311 307 303 300 297 296 296 293 290 285 280 274 270 269
357 347 341 343 343 338 338 342 345 348 345 344 344 340 341 345 347 349 352 354 356 360 1 2 3 3 3 4 6 6 2 358 354 353 350 348 347 347 345 342 339 337 337 340 338 332 326 318 311 305 301 297 295 295 294 293 292 290 285 281 276 271
12 2 352 354 356 354 351 350 348 346 345 345 343 342 346 348 350 354 358 359 359 2 5 5 6 7 7 7 8 6 0 356 353 352 351 349 348 348 346 343 342 341 343 346 344 341 336 328 319 309 304 299 297 296 293 292 292 292 289 285 282 277
15 10 6 2 360 0 355 352 348 344 345 345 343 345 349 352 357 1 3 2 1 5 8 8 9 10 9 8 8 3 358 355 352 351 351 349 347 347 345 344 343 342 344 344 343 345 345 339 331 321 313 305 302 300 296 297 297 295 291 286 284 281
13 10 12 11 3 360 352 346 345 344 344 343 343 348 353 358 2 5 4 1 3 10 11 9 10 10 10 10 6 1 356 354 352 350 350 349 348 349 347 345 345 347 348 348 347 348 345 342 338 332 326 320 313 309 306 306 303 297 294 290 289 287
8 5 8 11 4 356 347 342 342 342 341 341 345 350 356 1 4 6 3 1 9 15 12 9 10 10 11 9 4 359 355 352 351 349 348 349 348 348 347 347 350 353 353 353 353 348 343 341 340 338 335 335 334 329 321 313 306 303 305 303 299 294
6 357 358 3 0 354 344 341 341 338 339 342 348 353 357 1 4 5 2 6 14 15 11 10 9 10 9 6 2 358 354 351 350 349 349 348 345 344 346 350 352 354 355 353 351 348 347 347 345 341 341 347 357 352 339 328 320 315 314 312 308 301
9 351 346 356 355 348 341 339 339 337 339 343 349 354 357 1 4 4 5 10 15 13 11 10 8 7 6 4 0 356 353 352 352 352 351 347 345 345 349 355 356 356 357 354 350 349 349 353 352 348 352 6 13 3 351 341 331 323 317 313 310 306
16 354 340 347 342 338 337 338 338 337 340 346 351 353 358 5 5 6 9 12 14 13 11 8 6 5 5 3 358 355 354 354 355 353 351 347 347 348 351 1 2 358 359 357 351 349 352 2 5 4 15 26 18 5 356 344 332 324 317 312 309 307
22 9 345 338 335 336 336 336 336 337 342 346 349 353 2 8 6 8 13 14 14 13 11 8 6 6 5 2 357 355 355 355 355 353 351 348 349 351 356 6 6 1 1 359 352 352 2 13 16 29 38 34 24 12 2 349 336 327 320 315 312 307
24 19 4 347 340 336 333 333 334 339 342 345 348 356 5 7 5 12 16 16 15 13 10 8 6 6 5 0 357 357 357 358 356 353 351 350 352 356 2 8 8 8 5 358 354 1 17 24 32 51 48 37 27 17 6 356 349 342 335 328 324 319
22 20 13 358 343 332 331 334 336 340 341 344 351 359 3 3 8 19 20 18 16 12 9 8 7 7 5 0 360 1 2 1 357 355 354 354 357 2 8 9 8 12 8 359 1 12 27 39 54 58 50 40 29 22 16 9 5 2 357 352 348 344
20 18 12 360 346 334 334 337 338 340 340 347 356 359 1 7 20 26 22 19 16 12 10 9 9 10 7 4 5 5 5 3 360 358 358 360 2 5 10 10 8 12 9 7 13 20 32 49 59 59 52 44 33 28 24 18 15 15 12 8 9 7
20 17 10 358 350 341 338 339 338 339 344 354 359 360 8 24 34 29 22 20 17 16 15 13 15 15 12 10 9 8 6 5 2 1 1 3 5 6 8 10 14 14 12 22 30 28 37 48 53 60 58 47 37 31 28 24 23 27 29 27 26 21
19 17 12 3 355 348 345 345 345 347 354 2 1 4 23 36 37 28 21 21 21 21 20 19 21 19 16 13 11 9 7 6 4 3 2 4 6 8 10 13 19 16 13 31 42 39 41 40 46 68 65 52 40 31 29 32 36 40 44 43 38 30
19 17 14 10 5 360 359 357 356 356 360 3 3 12 35 43 35 23 21 24 25 24 22 22 23 21 19 16 13 10 8 7 5 4 3 3 6 12 16 17 21 18 15 31 42 40 39 36 42 58 59 51 45 35 30 36 43 44 47 49 49 48
18 16 15 11 8 6 6 3 359 358 1 3 5 22 42 44 31 18 23 27 27 26 23 23 23 22 21 18 15 12 9 8 5 4 5 5 7 16 22 21 22 18 18 32 40 36 32 30 29 28 32 35 39 39 32 36 43 44 45 49 53 56
17 17 16 11 8 9 7 3 358 359 5 7 11 32 49 46 23 13 26 30 27 26 24 23 24 25 23 20 17 13 10 9 6 4 8 10 10 18 28 27 26 22 23 35 38 32 27 25 21 18 23 23 22 27 29 34 40 43 46 50 56 56
18 18 17 12 10 10 7 1 358 3 12 15 21 42 63 50 13 14 30 31 27 27 24 23 25 28 26 23 19 15 12 10 8 8 12 15 13 18 29 31 30 29 29 33 33 28 22 24 23 18 21 19 13 18 24 32 37 43 49 53 57 55
17 18 18 15 13 11 8 3 5 11 17 25 36 60 71 40 14 19 30 29 27 27 24 23 27 31 30 26 21 18 15 13 13 16 19 20 18 19 26 31 30 29 28 28 27 25 22 26 27 24 30 31 20 22 30 38 40 44 50 53 55 55
16 17 18 17 13 11 10 9 13 16 18 24 39 56 55 35 15 19 27 27 26 27 25 25 30 35 33 28 25 22 20 20 23 26 24 24 24 23 26 33 33 28 28 25 22 26 28 33 37 40 47 47 42 43 44 45 46 44 48 52 54 56
15 15 18 17 14 11 12 13 17 19 20 26 40 55 56 36 12 15 24 26 27 28 26 27 33 39 37 32 30 28 29 32 35 35 33 31 32 32 33 38 38 33 31 31 31 35 37 41 50 52 53 54 56 61 54 48 48 46 45 49 54 57
14 13 17 18 14 13 14 16 20 22 23 28 42 57 58 27 4 12 22 27 30 31 29 30 37 43 42 36 36 37 39 43 44 44 43 41 40 39 39 40 41 39 39 43 47 48 45 46 52 54 51 54 59 63 63 57 55 55 49 46 50 56
13 13 17 18 16 14 16 18 21 25 26 27 36 48 40 357 357 9 19 28 33 34 33 34 42 49 46 42 44 46 47 48 50 50 49 49 48 46 45 43 42 41 41 45 48 49 50 50 49 49 49 54 60 64 66 66 65 63 59 49 43 45
9 13 18 18 17 16 18 20 21 25 26 26 31 32 357 339 356 6 17 31 36 37 38 39 47 54 51 49 52 52 52 52 52 52 52 51 51 50 50 48 45 43 41 40 43 47 51 52 50 51 52 52 54 55 57 61 66 66 64 59 51 46
7 13 17 18 17 17 20 22 23 25 23 24 29 20 357 359 7 10 23 35 39 41 41 42 51 58 56 56 59 57 55 53 52 51 50 49 49 49 49 48 47 46 44 44 47 52 54 54 53 55 56 54 55 58 58 58 62 65 62 58 53 51
5 13 17 18 18 19 22 24 24 23 20 21 26 19 12 18 17 17 28 36 41 45 45 45 53 61 61 63 65 61 56 53 49 46 45 45 45 45 45 45 45 45 45 47 50 55 57 55 53 53 56 59 62 64 62 60 61 62 58 54 52 51
6 14 20 19 19 22 25 27 26 22 20 20 21 19 18 20 19 19 25 35 44 49 48 47 54 60 62 64 66 62 55 50 44 40 41 42 42 41 42 43 43 43 44 47 51 56 59 58 56 56 59 64 66 63 60 60 61 61 57 54 52 51
10 18 22 22 22 25 27 30 27 21 21 20 17 19 19 19 18 16 22 34 44 50 51 49 53 59 61 63 67 64 55 47 41 38 39 40 41 40 39 41 42 42 43 45 50 56 60 62 62 62 63 64 64 61 58 57 57 55 51 47 46 46
14 20 25 27 25 27 30 32 28 21 19 19 17 18 17 16 16 13 20 36 46 52 54 51 53 58 60 63 68 67 56 46 41 39 40 41 41 40 40 41 42 42 43 43 46 53 59 62 61 59 56 55 56 56 55 53 49 45 40 39 39 40
13 18 27 32 28 29 33 33 29 23 19 19 18 17 15 14 12 11 21 41 49 53 57 53 54 58 60 62 67 68 57 46 42 42 42 42 41 40 42 44 43 43 45 44 43 46 51 54 55 51 47 45 46 49 50 47 42 36 34 35 34 35
13 21 31 35 31 31 35 34 29 24 22 21 21 18 15 16 13 13 27 48 52 54 59 56 54 56 60 62 65 68 58 47 45 44 44 44 42 40 41 44 45 44 44 46 46 44 44 44 43 41 40 39 38 38 39 40 40 38 37 37 33 32
Height
1515 1514 1514 1513 1512 1511 1510 1510 1509 1508 1507 1506 1504 1503 1501 1500 1498 1496 1494 1493 1491 1490 1488 1487 1485 1484 1483 1482 1481 1480 1478 1477 1475 1474 1472 1469 1467 1465 1463 1461 1460 1458 1456 1455 1453 1451 1450 1449 1448 1447 1445 1444 1442 1441 1440 1439 1438 1437 1436 1436 1435 1435
1514 1514 1513 1513 1512 1511 1510 1509 1508 1508 1506 1505 1504 1503 1501 1499 1498 1496 1494 1492 1491 1489 1488 1486 1485 1484 1483 1482 1481 1479 1477 1476 1474 1472 1470 1468 1466 1464 1462 1460 1458 1457 1455 1453 1451 1449 1448 1446 1445 1444 1443 1441 1439 1439 1438 1437 1435 1435 1434 1434 1433 1433
1513 1513 1513 1513 1512 1510 1510 1509 1508 1507 1506 1505 1504 1502 1501 1499 1497 1495 1493 1492 1490 1489 1488 1486 1485 1484 1483 1481 1480 1478 1477 1475 1473 1471 1469 1467 1465 1463 1461 1459 1457 1455 1453 1451 1449 1447 1445 1444 1442 1441 1440 1438 1437 1436 1435 1434 1433 1432 1432 1431 1431 1431
1513 1513 1512 1512 1511 1510 1509 1509 1508 1507 1506 1505 1503 1502 1501 1499 1497 1495 1493 1492 1490 1489 1488 1487 1485 1484 1482 1481 1479 1477 1476 1474 1472 1470 1468 1467 1465 1463 1461 1459 1457 1454 1452 1449 1447 1445 1444 1442 1440 1439 1438 1436 1435 1434 1433 1431 1430 1430 1429 1429 1428 1428
1512 1512 1512 1512 1511 1510 1509 1508 1507 1506 1506 1505 1504 1502 1501 1499 1497 1495 1493 1491 1490 1489 1488 1487 1485 1483 1482 1480 1478 1477 1475 1473 1471 1469 1468 1466 1464 1462 1460 1458 1455 1453 1450 1448 1446 1444 1442 1441 1439 1437 1436 1434 1433 1432 1430 1429 1428 1427 1427 1426 1426 1426
1512 1512 1511 1511 1510 1509 1509 1508 1507 1506 1506 1505 1503 1502 1500 1499 1497 1495 1493 1492 1490 1489 1488 1486 1484 1483 1481 1479 1478 1476 1474 1473 1471 1469 1467 1465 1463 1461 1458 1456 1454 1451 1449 1447 1445 1443 1441 1439 1437 1436 1434 1433 1431 1430 1428 1427 1426 1425 1424 1424 1423 1423
1512 1512 1511 1511 1510 1509 1509 1508 1507 1507 1506 1505 1503 1502 1500 1498 1497 1495 1493 1492 1490 1489 1487 1485 1484 1482 1481 1479 1478 1476 1474 1473 1471 1469 1466 1464 1462 1460 1458 1455 1453 1450 1448 1446 1444 1442 1440 1438 1436 1434 1432 1431 1429 1428 1427 1425 1424 1423 1422 1421 1421 1420
1512 1512 1512 1511 1511 1510 1509 1509 1508 1507 1506 1505 1504 1502 1500 1498 1497 1495 1493 1491 1490 1488 1487 1485 1484 1482 1481 1479 1478 1476 1475 1473 1470 1468 1466 1464 1461 1459 1457 1454 1452 1449 1447 1445 1443 1440 1438 1436 1434 1432 1430 1429 1427 1426 1425 1423 1422 1421 1420 1419 1418 1418
1512 1512 1512 1512 1511 1511 1510 1509 1508 1507 1506 1505 1504 1502 1500 1499 1497 1495 1493 1491 1490 1489 1487 1485 1484 1482 1481 1480 1478 1476 1474 1472 1470 1468 1466 1463 1461 1459 1457 1454 1451 1449 1446 1444 1442 1439 1437 1435 1432 1430 1428 1426 1425 1424 1423 1421 1420 1419 1418 1417 1416 1415
1513 1513 1512 1512 1512 1511 1510 1510 1509 1508 1507 1505 1504 1502 1501 1499 1497 1495 1493 1492 1490 1489 1487 1486 1484 1483 1481 1480 1478 1477 1475 1473 1470 1467 1465 1463 1461 1459 1456 1453 1450 1447 1445 1443 1441 1438 1436 1434 1431 1428 1426 1424 1423 1422 1421 1420 1419 1418 1417 1415 1414 1413
1514 1513 1513 1513 1512 1512 1511 1510 1509 1508 1507 1506 1504 1503 1501 1499 1498 1496 1494 1492 1491 1490 1488 1486 1485 1483 1482 1480 1479 1477 1475 1472 1470 1468 1465 1463 1461 1459 1456 1453 1449 1447 1444 1442 1440 1438 1435 1432 1430 1428 1425 1424 1422 1421 1420 1419 1418 1417 1415 1414 1413 1412
1514 1514 1513 1513 1513 1512 1511 1510 1509 1508 1507 1506 1504 1503 1501 1500 1498 1496 1494 1493 1492 1490 1489 1487 1486 1484 1482 1481 1479 1477 1475 1472 1470 1468 1465 1463 1460 1458 1455 1452 1449 1446 1444 1441 1439 1436 1434 1431 1429 1427 1425 1424 1423 1421 1420 1419 1417 1416 1414 1413 1411 1410
1515 1514 1514 1514 1513 1512 1511 1511 1510 1509 1507 1506 1505 1503 1502 1500 1498 1497 1495 1494 1492 1491 1489 1488 1486 1485 1483 1482 1480 1477 1475 1472 1470 1468 1465 1463 1460 1457 1454 1451 1448 1446 1443 1440 1437 1435 1432 1430 1428 1426 1425 1424 1423 1422 1420 1418 1416 1414 1413 1411 1410 1408
1515 1515 1514 1514 1513 1512 1512 1511 1510 1509 1507 1506 1505 1504 1502 1500 1498 1497 1496 1494 1493 1491 1490 1489 1487 1486 1484 1482 1480 1477 1475 1472 1470 1468 1465 1462 1459 1456 1452 1449 1447 1445 1443 1440 1437 1434 1431 1429 1427 1426 1426 1425 1424 1422 1420 1417 1415 1413 1411 1409 1408 1406
1516 1515 1514 1514 1513 1512 1512 1511 1510 1509 1508 1507 1505 1504 1502 1501 1499 1497 1496 1495 1493 1492 1491 1489 1488 1486 1484 1482 1480 1478 1475 1473 1470 1468 1465 1462 1458 1455 1451 1449 1447 1444 1442 1439 1437 1434 1431 1429 1428 1427 1427 1426 1424 1422 1419 1416 1414 1412 1409 1407 1405 1404
1516 1515 1514 1514 1513 1512 1512 1511 1510 1509 1508 1507 1506 1504 1503 1501 1499 1498 1497 1496 1494 1493 1491 1490 1488 1487 1485 1483 1480 1478 1475 1473 1471 1468 1465 1461 1458 1454 1451 1449 1447 1445 1442 1439 1437 1434 1432 1430 1429 1428 1428 1426 1425 1422 1419 1416 1413 1410 1408 1406 1403 1401
1516 1515 1515 1514 1514 1512 1512 1511 1510 1509 1508 1507 1506 1504 1503 1501 1500 1499 1498 1496 1495 1494 1492 1491 1489 1487 1485 1483 1481 1478 1476 1474 1471 1468 1464 1461 1457 1454 1451 1449 1447 1445 1442 1439 1437 1434 1432 1431 1430 1429 1429 1427 1425 1423 1419 1415 1412 1410 1407 1405 1402 1400
1516 1516 1515 1515 1514 1513 1512 1511 1510 1509 1509 1507 1506 1504 1503 1502 1501 1500 1498 1497 1496 1495 1493 1492 1490 1488 1486 1484 1481 1479 1477 1474 1471 1467 1464 1461 1457 1455 1452 1450 1447 1445 1443 1440 1437 1435 1433 1432 1431 1431 1429 1428 1426 1423 1420 1416 1413 1410 1407 1404 1402 1400
1517 1516 1516 1515 1514 1513 1512 1512 1511 1510 1509 1508 1506 1504 1503 1502 1501 1500 1499 1498 1497 1496 1494 1492 1490 1488 1486 1484 1482 1480 1477 1474 1470 1467 1464 1461 1457 1455 1453 1450 1448 1445 1443 1441 1438 1436 1435 1434 1433 1432 1430 1429 1427 1424 1421 1417 1414 1410 1407 1405 1403 1401
1517 1517 1516 1515 1514 1514 1513 1512 1511 1510 1509 1507 1506 1505 1504 1503 1502 1501 1500 1499 1498 1497 1495 1493 1491 1489 1487 1485 1483 1480 1477 1474 1471 1468 1464 1461 1458 1455 1453 1451 1448 1446 1444 1442 1440 1438 1437 1436 1435 1433 1432 1430 1428 1426 1422 1419 1415 1411 1408 1406 1404 1401
1518 1517 1517 1516 1515 1514 1513 1512 1511 1510 1508 1507 1506 1505 1504 1503 1502 1501 1501 1500 1499 1497 1496 1494 1492 1490 1488 1486 1483 1480 1477 1474 1471 1468 1465 1462 1459 1456 1454 1452 1449 1447 1445 1443 1441 1439 1438 1437 1436 1434 1433 1431 1430 1427 1425 1421 1417 1414 1410 1408 1405 1402
1518 1518 1517 1516 1515 1514 1513 1512 1511 1510 1509 1508 1507 1506 1505 1504 1503 1502 1502 1501 1500 1498 1496 1494 1492 1491 1489 1487 1484 1481 1478 1475 1472 1469 1466 1463 1460 1457 1455 1453 1450 1448 1446 1444 1443 1441 1440 1438 1436 1435 1434 1432 1430 1429 1427 1423 1419 1416 1413 1410 1407 1405
1519 1518 1517 1516 1516 1514 1513 1512 1511 1511 1510 1509 1507 1506 1506 1505 1504 1503 1503 1502 1501 1499 1497 1495 1493 1491 1490 1487 1485 1482 1479 1476 1473 1469 1466 1463 1460 1458 1456 1454 1452 1450 1448 1446 1445 1443 1441 1439 1438 1436 1434 1432 1431 1429 1428 1425 1422 1420 1417 1414 1411 1408
1520 1518 1518 1517 1516 1515 1514 1513 1512 1511 1511 1509 1508 1507 1507 1506 1505 1504 1504 1503 1501 1500 1498 1496 1494 1492 1491 1488 1486 1483 1480 1477 1474 1470 1467 1464 1461 1458 1456 1455 1453 1451 1449 1448 1446 1444 1443 1442 1440 1437 1435 1433 1432 1430 1429 1428 1427 1424 1420 1417 1414 1411
1520 1519 1518 1518 1517 1516 1515 1514 1513 1512 1511 1510 1509 1508 1507 1506 1505 1504 1504 1503 1502 1500 1499 1497 1495 1494 1492 1490 1487 1484 1481 1478 1475 1472 1468 1465 1463 1460 1458 1456 1454 1453 1451 1449 1448 1446 1445 1444 1442 1440 1438 1436 1434 1433 1433 1432 1430 1427 1424 1421 1418 1415
1521 1520 1519 1519 1518 1517 1516 1515 1514 1513 1511 1510 1509 1508 1507 1506 1505 1505 1505 1504 1503 1501 1500 1498 1496 1495 1493 1491 1488 1486 1483 1480 1477 1473 1470 1467 1465 1462 1459 1457 1456 1454 1452 1451 1450 1448 1447 1445 1444 1442 1441 1439 1438 1437 1437 1434 1432 1430 1428 1424 1421 1418
1521 1521 1520 1519 1519 1518 1517 1515 1514 1513 1511 1510 1509 1508 1508 1507 1506 1506 1506 1505 1504 1502 1501 1499 1497 1496 1494 1492 1490 1487 1485 1483 1479 1476 1473 1470 1466 1464 1462 1460 1458 1456 1454 1453 1451 1449 1448 1447 1445 1444 1443 1442 1441 1440 1439 1437 1434 1433 1431 1427 1424 1422
1522 1521 1521 1520 1519 1519 1517 1516 1515 1514 1512 1511 1510 1509 1509 1508 1507 1507 1507 1506 1505 1503 1502 1500 1498 1497 1495 1494 1491 1489 1488 1485 1482 1478 1475 1472 1469 1467 1465 1463 1461 1458 1456 1454 1452 1451 1450 1448 1447 1447 1446 1445 1443 1442 1440 1439 1437 1436 1434 1431 1428 1425
1523 1522 1521 1521 1520 1519 1518 1517 1516 1514 1513 1511 1511 1510 1509 1508 1508 1508 1507 1507 1505 1504 1503 1501 1499 1498 1496 1495 1493 1491 1490 1487 1484 1481 1479 1476 1473 1471 1468 1465 1463 1461 1459 1457 1455 1453 1452 1451 1450 1450 1449 1447 1446 1444 1442 1441 1440 1438 1436 1434 1432 1428
1523 1523 1522 1521 1521 1520 1519 1518 1517 1515 1514 1512 1511 1510 1509 1509 1509 1508 1508 1507 1506 1505 1503 1502 1500 1499 1498 1496 1495 1493 1492 1490 1487 1485 1482 1480 1477 1474 1471 1468 1466 1464 1461 1459 1458 1456 1455 1454 1453 1452 1451 1449 1447 1445 1444 1443 1442 1441 1439 1437 1435 1433
1524 1523 1522 1522 1521 1521 1520 1518 1517 1516 1514 1513 1512 1511 1510 1509 1509 1509 1508 1507 1507 1505 1504 1503 1501 1500 1499 1498 1497 1495 1493 1492 1490 1488 1485 1483 1480 1477 1475 1472 1470 1467 1464 1462 1461 1460 1458 1457 1456 1454 1453 1451 1449 1448 1447 1446 1445 1444 1442 1440 1439 1437
1524 1524 1523 1522 1522 1521 1520 1519 1518 1516 1515 1513 1512 1511 1510 1510 1509 1509 1508 1508 1507 1506 1505 1503 1502 1501 1500 1499 1498 1497 1495 1494 1492 1490 1488 1485 1483 1481 1478 1476 1474 1471 1468 1466 1464 1463 1461 1460 1459 1457 1456 1455 1454 1452 1451 1450 1449 1448 1446 1445 1443 1441
1524 1524 1523 1523 1522 1522 1521 1520 1518 1517 1515 1514 1512 1511 1511 1510 1510 1509 1509 1508 1507 1506 1505 1504 1503 1502 1501 1501 1500 1498 1497 1496 1494 1492 1490 1488 1486 1484 1482 1479 1477 1475 1472 1470 1468 1466 1465 1463 1462 1461 1460 1459 1458 1456 1455 1454 1453 1451 1450 1448 1446 1444
1525 1524 1524 1523 1523 1522 1521 1520 1519 1517 1516 1515 1513 1512 1512 1511 1510 1510 1509 1509 1508 1507 1506 1505 1504 1502 1502 1502 1501 1500 1499 1497 1496 1495 1493 1491 1489 1487 1485 1482 1480 1478 1476 1474 1472 1471 1469 1467 1466 1464 1463 1463 1461 1460 1458 1457 1456 1454 1452 1451 1449 1447
1525 1525 1524 1524 1523 1522 1522 1521 1519 1518 1516 1515 1514 1513 1513 1512 1511 1510 1510 1509 1508 1507 1507 1505 1504 1503 1503 1503 1502 1501 1500 1499 1498 1497 1495 1493 1491 1489 1487 1485 1483 1481 1479 1477 1476 1474 1473 1471 1470 1468 1467 1466 1465 1463 1462 1460 1459 1457 1455 1454 1452 1451
1526 1525 1524 1524 1524 1523 1522 1521 1520 1519 1517 1516 1515 1514 1513 1513 1512 1511 1510 1510 1509 1508 1507 1506 1505 1504 1504 1504 1503 1502 1502 1501 1499 1498 1497 1495 1493 1491 1490 1487 1485 1483 1481 1480 1479 1477 1476 1475 1473 1471 1470 1469 1467 1466 1465 1463 1461 1460 1458 1456 1455 1453
1526 1525 1525 1524 1524 1523 1523 1522 1520 1519 1518 1517 1516 1515 1514 1513 1512 1511 1511 1510 1509 1509 1508 1507 1506 1505 1505 1504 1504 1503 1503 1502 1501 1500 1498 1497 1495 1493 1492 1490 1487 1485 1483 1482 1481 1480 1478 1477 1475 1474 1472 1471 1469 1468 1466 1465 1463 1462 1460 1458 1457 1455